Regional Weather Roundup
Issued by NWS

Home | Current Version | Previous Version | Text Only | Print | Product List | Glossary On
Versions: 1 2 3 4 5 6 7 8 9 10 11 12 13 14 15 16 17 18 19 20 21 22 23 24 25 26 27 28 29 30 31 32 33 34 35 36 37 38 39 40 41 42 43 44 45
000
ASUS45 KPSR 252010
RWRAZ

ARIZONA REGIONAL HOURLY WEATHER ROUNDUP
NATIONAL WEATHER SERVICE TUCSON AZ
100 PM MST THU MAY 25 2017

NOTE: FAIR INDICATES FEW OR NO CLOUDS BELOW 12,000 FEET WITH NO
SIGNIFICANT WEATHER AND/OR OBSTRUCTIONS TO VISIBILITY.

AZZ001>003-036-252100-
NORTHWEST ARIZONA

CITY           SKY/WX    TMP DP  RH WIND       PRES   REMARKS
BULLHEAD CITY  SUNNY    100  16   5 S23       29.51F
KINGMAN        SUNNY     89  24   9 SW28G39   29.71S
$$

AZZ004>008-015-016-018-252100-
NORTH CENTRAL ARIZONA

CITY           SKY/WX    TMP DP  RH WIND       PRES   REMARKS
GRAND CANYON   MOSUNNY   76  21  12 SW21G38   29.86R
PRESCOTT       SUNNY     81  20  10 W15G31    29.86R
FLAGSTAFF      SUNNY     73  21  14 SW28G41   29.92F
$$

AZZ009>014-017-252100-
NORTHEAST ARIZONA

CITY           SKY/WX    TMP DP  RH WIND       PRES   REMARKS
WINSLOW        SUNNY     87  18   8 W24G35    29.80S
SAINT JOHNS    MOSUNNY   82   6   5 W28G43    29.87S
WINDOW ROCK    SUNNY     80  18  10 SW24G41   29.86F
$$

AZZ023-252100-
GREATER PHOENIX AREA

CITY           SKY/WX    TMP DP  RH WIND       PRES   REMARKS
PHOENIX        PTSUNNY   96   8   4 W10G20    29.67F
GLENDALE       PTSUNNY   95  14   5 S8G24     29.68F
LUKE AFB       MOSUNNY   95  19   6 SW16      29.65F
DEER VALLEY    SUNNY     91  12   5 S17G24    29.68F
SCOTTSDALE     MOSUNNY   92  15   6 VRB7G20   29.71F
MESA-FALCON    MOSUNNY   95  16   5 SW13      29.70F
MESA-GATEWAY   MOSUNNY   93   9   4 W13G20    29.71F
CHANDLER       SUNNY     97   1   3 SW7G22    29.69F
$$

AZZ027-028-252100-
SOUTHWEST MARICOPA COUNTY AND PINAL COUNTY

CITY           SKY/WX    TMP DP  RH WIND       PRES   REMARKS
CASA GRANDE    PTSUNNY   95  22   7 SW10      29.70F
$$

AZZ503-504-507>509-252100-
SOUTHEAST ARIZONA

CITY           SKY/WX    TMP DP  RH WIND       PRES   REMARKS
TUCSON         NOT AVBL
DAVIS-MONTHAN  PTSUNNY   93  17   6 W10       29.79F
RYAN FIELD     CLEAR     95  14   5 SW14      29.79F
NOGALES        SUNNY     89  19   7 S18G25    29.91F
SIERRA VISTA   SUNNY     86  12   6 W16G26    29.94F
DOUGLAS        MOSUNNY   91  13   5 W24G31    29.90F
SAFFORD        PTSUNNY   94  14   5 NW20G26   29.76F
$$

AZZ020-021-025-026-031-252100-
SOUTHWEST ARIZONA

CITY           SKY/WX    TMP DP  RH WIND       PRES   REMARKS
YUMA           PTSUNNY   98  36  11 S16       29.62F
$$

CAZ031-033-041-043-047-048-061-252100-
SOUTHERN CALIFORNIA

CITY           SKY/WX    TMP DP  RH WIND       PRES   REMARKS
DOWNTOWN L.A.  CLOUDY    66  51  58 VRB3      29.88F
L.A. AIRPORT   CLOUDY    64  51  62 SW10      29.89F
SAN DIEGO      PTSUNNY   65  51  60 W10       29.92S
BURBANK        CLOUDY    63  48  58 SE7       29.88S
ONTARIO        PTSUNNY   68  47  46 W12G20    29.87F
RIVERSIDE      SUNNY     70  49  47 W13G18    29.86F
PALM SPRINGS   SUNNY     90  40  17 NW13G23   29.63F
EL CENTRO NAS  MOSUNNY   96  18   6 SW8       29.62F
IMPERIAL       LGT RAIN  96  30   9 W7        29.60F
BLYTHE         SUNNY    100  -5   2 SW25G31   29.59F
NEEDLES        SUNNY    103   6   3 SW16G26   29.56
$$

NVZ020-UTZ003-252100-
SOUTHERN NEVADA-UTAH

CITY           SKY/WX    TMP DP  RH WIND       PRES   REMARKS
LAS VEGAS      MOSUNNY   94  15   5 SW14G26   29.53F
SALT LAKE CITY PTSUNNY   66  27  23 N12       29.74S
$$

NMZ009-TXZ055-252100-
NEW MEXICO-WEST TEXAS

CITY           SKY/WX    TMP DP  RH WIND       PRES   REMARKS
ALBUQUERQUE    CLOUDY    86  11   6 W21G30    29.79F
EL PASO        PTSUNNY   93  18   6 W17G31    29.82F
$$


........................KEY........................
SKY/WX - SKY CONDITION/WEATHER
TMP    - TEMPERATURE IN FAHRENHEIT
DP     - DEWPOINT IN FAHRENHEIT
RH     - RELATIVE HUMIDITY IN PERCENT
WIND   - DIRECTION AND SPEED IN MILES PER HOUR (MPH)
VRB    - VARIABLE WIND DIRECTION
PRES   - MEAN SEA LEVEL PRESSURE IN INCHES OF MERCURY
         F - FALLING PRESSURE   R - RISING PRESSURE
         S - STEADY PRESSURE
VSB    - VISIBILITY IN MILES
HX     - HEAT INDEX IN FAHRENHEIT
WCI    - WIND CHILL INDEX IN FAHRENHEIT
TC     - TEMPERATURE IN CELSIUS WHICH IS ALSO KNOWN AS
         TEMPERATURE IN CENTIGRADE
AFB    - AIR FORCE BASE
         LUKE AFB IS LUKE AIR FORCE BASE
         DAVIS-MONTHAN IS DAVIS-MONTHAN AIR FORCE BASE
NAS    - NAVAL AIR STATION
         EL CENTRO NAS IS EL CENTRO NAVAL AIR STATION
N/A    - NOT AVAILABLE





USA.gov is the U.S. government's official web portal to all federal, state and local government web resources and services.